Regional Weather Roundup
Issued by NWS Albany, NY

Home | Current Version | Previous Version | Graphics & Text | Print | Product List | Glossary On
Versions: 1 2 3 4 5 6 7 8 9 10 11 12 13 14 15 16 17 18 19 20 21 22 23 24 25 26 27
000
ASUS41 KALY 272010
RWRALY

NEW YORK STATE HOURLY WEATHER ROUNDUP
NATIONAL WEATHER SERVICE ALBANY NY
400 PM EDT WED JUL 27 2016

NOTE: "FAIR" INDICATES FEW OR NO CLOUDS BELOW 12,000 FEET WITH NO
SIGNIFICANT WEATHER AND/OR NO OBSTRUCTIONS TO VISIBILITY.

NYZ032-033-038>043-046>054-057>066-NYZ062>081-082-084-272100-
EAST


CITY           SKY/WX    TMP DP  RH WIND       PRES   REMARKS
ALBANY         MOSUNNY   89  57  33 SW6       29.91F
GLENS FALLS    SUNNY     88  62  41 S6        29.88F
POUGHKEEPSIE   SUNNY     91  61  36 MISG      29.90F HX  91
NEWBURGH       MOSUNNY   88  59  37 NW7       29.94F
MONTGOMERY     SUNNY     89  61  38 N5        29.92F
WHITE PLAINS   MOSUNNY   89  59  36 NW10      29.91F
ISLIP          MOSUNNY   87  66  49 S13       29.91F
NEW YORK CITY  MOSUNNY   93  59  31 SW7       29.89F HX  92
CENTRAL PARK   PTSUNNY   89  62  40 CALM      29.93F
$$

NYZ005>009-017-018-044>046-055-056-272100-
CENTRAL


CITY           SKY/WX    TMP DP  RH WIND       PRES   REMARKS
FULTON         SUNNY     90  59  35 W9        29.92F
SYRACUSE       MOSUNNY   85  60  42 W7G17     29.92F
ROME           SUNNY     84  60  44 SW13      29.94F
ELMIRA         PTSUNNY   89  56  32 W9        29.94F
BINGHAMTON     MOSUNNY   84  55  36 VRB3      29.98F
MONTICELLO     SUNNY     81  61  50 NW7       30.00S
$$

NYZ026>034-041>043-087-272100-
NORTH


CITY           SKY/WX    TMP DP  RH WIND       PRES   REMARKS
WATERTOWN      SUNNY     85  53  33 SW14      29.91F
FORT DRUM      NOT AVBL
MASSENA        MOSUNNY   86  64  47 SW9       29.86F
SARANAC LAKE   MOSUNNY   82  54  37 SW10      29.93F
PLATTSBURGH    MOSUNNY   86  63  45 SE10      29.85F
$$

NYZ001>004-010>016-019>021-085-272100-
WEST


CITY           SKY/WX    TMP DP  RH WIND       PRES   REMARKS
NIAGARA FALLS  MOSUNNY   88  65  46 SW17G23   29.92F HX  90
BUFFALO        MOSUNNY   83  63  50 SW17      29.94F
DUNKIRK        SUNNY     83  62  49 W10G20    29.97F
JAMESTOWN      MOSUNNY   82  57  42 CALM      30.01F
WELLSVILLE     MOSUNNY   82  56  40 N7        30.03F
ROCHESTER      PTSUNNY   88  63  43 W12       29.92F
PENN YAN       SUNNY     87  60  40 VRB5      29.95F
$$

             KEY
       WCI = WIND CHILL INDEX
       VSB = VISIBILITY
       HX  = HEAT INDEX
$$




USA.gov is the U.S. government's official web portal to all federal, state and local government web resources and services.